Weather History for Cincinnati, OH

Change the Weather History Date:

Tuesday, January 7, 2014

  Actual Average Record
Temperature  
Mean Temperature 4 °F -  
Max Temperature 12 °F 37 °F 69 °F (2008)
Min Temperature -5 °F 21 °F -5 °F (2014)
Degree Days  
Heating Degree Days 62    
Moisture  
Dew Point -5 °F    
Average Humidity 66    
Maximum Humidity 76    
Minimum Humidity 53    
Precipitation  
Precipitation 0.00 in - - ()
Sea Level Pressure  
Sea Level Pressure 30.50 in    
Wind  
Wind Speed 12 mph (SW)    
Max Wind Speed 17 mph    
Max Gust Speed 26 mph    
Visibility 10 miles    
Events      
Averages and records for this station are not official NWS values.
T = Trace of Precipitation, MM = Missing Value Source: NWS Daily Summary

Daily Weather History Graph

Daily Weather History Graph

Search for Another Location

Airport:

Trip Planner

Search our weather history database for the weather conditions in past years. The results will help you decide how hot, cold, wet, or windy it might be!

Date:

Astronomy

Jan. 07, 2014 Rise Set
Actual Time 7:57 AM EST 5:31 PM EST
Civil Twilight 7:27 AM EST 6:00 PM EST
Nautical Twilight 6:54 AM EST 6:34 PM EST
Astronomical Twilight 6:21 AM EST 7:06 PM EST
Moon 11:48 AM EST (1/7) No Moon Set
Length of Visible Light 10h 33m
Length of Day
9h 34m
Waxing Crescent, 45% of the Moon is Illuminated
Jan 7
Waxing Crescent
Jan 7
First Quarter
Jan 15
Full
Jan 24
Last Quarter
Jan 30
New

Hourly Weather History & Observations

Time (EST) Temp. Windchill Dew Point Humidity Pressure Visibility Wind Dir Wind Speed Gust Speed Precip Events Conditions
12:53 AM -5.1 °F -27.2 °F -11.9 °F 72% 30.50 in 6.0 mi West 17.3 mph 26.5 mph N/A   Haze
1:53 AM -5.1 °F -23.5 °F -11.9 °F 72% 30.50 in 10.0 mi WSW 11.5 mph - N/A   Overcast
2:53 AM -5.1 °F -23.5 °F -13.0 °F 69% 30.52 in 10.0 mi WSW 11.5 mph - N/A   Mostly Cloudy
3:53 AM -4.0 °F -21.2 °F -11.9 °F 69% 30.49 in 10.0 mi WSW 10.4 mph - N/A   Mostly Cloudy
4:44 AM -4.0 °F -22.1 °F -11.2 °F 71% 30.46 in 10.0 mi SW 11.5 mph - N/A   Scattered Clouds
4:53 AM -4.0 °F -23.0 °F -11.9 °F 69% 30.51 in 10.0 mi SW 12.7 mph - N/A   Partly Cloudy
5:53 AM -4.0 °F -23.0 °F -11.0 °F 72% 30.50 in 10.0 mi SSW 12.7 mph - N/A   Clear
6:53 AM -4.0 °F -21.2 °F -9.9 °F 76% 30.51 in 10.0 mi SW 10.4 mph - N/A   Clear
7:53 AM -2.9 °F -23.1 °F -11.0 °F 68% 30.53 in 10.0 mi SW 15.0 mph 20.7 mph N/A   Clear
8:53 AM -2.0 °F -18.7 °F -9.9 °F 69% 30.55 in 10.0 mi SW 10.4 mph 21.9 mph N/A   Clear
9:53 AM 1.0 °F -15.8 °F -8.0 °F 66% 30.58 in 10.0 mi WSW 11.5 mph - N/A   Clear
10:53 AM 3.0 °F -14.8 °F -7.1 °F 63% 30.56 in 10.0 mi SW 13.8 mph 20.7 mph N/A   Clear
11:53 AM 6.1 °F -12.2 °F -4.0 °F 63% 30.55 in 10.0 mi SW 16.1 mph - N/A   Clear
12:53 PM 8.1 °F -7.0 °F -4.0 °F 58% 30.50 in 10.0 mi WSW 11.5 mph - N/A   Partly Cloudy
1:53 PM 9.0 °F -6.6 °F -2.9 °F 59% 30.49 in 10.0 mi WSW 12.7 mph - N/A   Clear
2:53 PM 10.9 °F -3.4 °F -2.0 °F 56% 30.47 in 10.0 mi SW 11.5 mph - N/A   Clear
3:53 PM 12.0 °F -0.4 °F -2.0 °F 53% 30.48 in 10.0 mi SSW 9.2 mph - N/A   Overcast
4:53 PM 10.9 °F -2.6 °F -0.0 °F 61% 30.47 in 10.0 mi SSW 10.4 mph - N/A   Overcast
5:53 PM 10.9 °F -3.4 °F -0.0 °F 61% 30.45 in 10.0 mi SSW 11.5 mph - N/A   Mostly Cloudy
6:53 PM 10.9 °F 0.2 °F 1.0 °F 64% 30.46 in 10.0 mi SSW 6.9 mph - N/A   Overcast
7:53 PM 12.0 °F 4.1 °F 1.0 °F 61% 30.47 in 10.0 mi South 4.6 mph - N/A   Overcast
8:53 PM 12.0 °F -0.4 °F 3.0 °F 67% 30.48 in 10.0 mi South 9.2 mph - N/A   Overcast
9:53 PM 12.0 °F 1.5 °F 3.0 °F 67% 30.49 in 10.0 mi SW 6.9 mph - N/A   Overcast
10:53 PM 10.9 °F 2.9 °F 1.9 °F 67% 30.48 in 10.0 mi South 4.6 mph - N/A   Partly Cloudy
11:53 PM 10.9 °F - 1.9 °F 67% 30.47 in 10.0 mi Calm Calm - N/A   Scattered Clouds